Showing default

HAWK-10C, 60575

Orbit data source: Space-Track

HAWK-10C, 60575 is a payload satellite owned by HawkEye 360 (US) in SSO that was launched on Fri, 16 Aug 2024 UTC via an FALCON 9 launch vehicle from the Air Force Western Test Range (AFWTR). Payload-class satellites include a variety of spacecraft equipped with specific instruments for various scientific and technological missions. These include communications satellites like Starlink; space stations such as the ISS; scientific satellites like the Hubble; Earth observation satellites from companies like Planet Labs, Umbra, and HawkEye 360; GPS; miniature CubeSats for education and research; and military/defense satellites.

Loading next visibility...
Identifier
60575, 2024-149DM
Orbit
SSO
Country
Flag of USUS
Related business
Manufacturer
UTIAS-SFL
Mission
Operational Commercial Sigint
Bus & Motor
HAWK2G, Unknown motor
Mass
31 kg wet, 30 kg dry
Launch date (UTC)
2024-08-16 (2 years ago)
Launch vehicle
FALCON 9
Launch site
Air Force Western Test Range (AFWTR)
Object type
Payload
Rocket body
Debris
Shape & HBR
Box + 2 Pan, 1.0 m
Radar Cross Section
0.240 m², Medium (>0.1 m² and < 1m²)

Expand to show TLE details & history
Last TLE update: 6 hours ago

TLE from 6 hours ago
0 HAWK-10C
1 60575U 24149DM  26175.19041043  .00000836  00000-0  78515-4 0  9993
2 60575  97.6731 249.6615 0004134  50.8746 309.2842 14.96529778101034
Epoch: 2026-06-24T04:34Z
TLE epoch observation values (Epoch: 2026-06-24T04:34:11.461Z)
Latitude
-0.00006°
Longitude
-91.23742°
Altitude
578.859 km
Speed
7.572 km/s
True Right ascension
16h 38m 38s
True Declination
0° 00' 00"
Sunlit
Object was in full shadow at epoch
Visualization orbit readout
Latitude
Unknown
Longitude
Unknown
Altitude
Unknown
Speed
Unknown
Apparent Right ascension
Unknown
Apparent Declination
Unknown
Sunlit
N/A
Visualization observer readout
Local Sidereal Time
21:55:36
Azimuth
Unknown
Elevation
Unknown
Doppler factor
Unknown
Orbital elements
Apogee altitude
577.512 km
Perigee altitude
571.763 km
Semi-major axis
6,952.774 km
Eccentricity
0.00041
Inclination
97.6731°
RAAN
249.6615°
Arg. of periapsis
50.8746°
True anomaly
309.24752°
Mean anomaly
309.2842°
Eccentric anomaly
309.26586°
Mean motion
3.74374 °/min
Orbital period
96.16 mins
BSTAR
0.000078515
Loading maneuver chart data...
Computing Atmospheric mass density...
Loading historical data...
Loading historical data...
Loading historical data...
Loading historical data...
Loading historical data...
Loading historical data...
Loading historical data...

Documentation

Showing up to 5 results
|